User: anonymous   Login
Location: Melbourne
(37.8170°S, 144.9670°E)
Time: 12:08:06
(UTC+10:00)
Language:

Cosmos 962 Rocket - Orbit

View from above orbital plane
View from above orbital plane
View from above satellite
View from above satellite

Ground track
Ground track

The orbit data is extracted from the following two-line orbital elements,

1 10461U 77107B   15147.14415977  .00000012  00000-0 -39732-5 0  9993
2 10461 082.9498 211.6815 0034846 092.9449 296.5965 13.76728324887299
Epoch (UTC): 27 May 2015 03:27:35
Eccentricity: 0.0034846
inclination: 82.9498°
perigee height: 950 km
apogee height: 1001 km
right ascension of ascending node: 211.6815°
argument of perigee: 92.9449°
revolutions per day: 13.76728324
mean anomaly at epoch: 296.5965°
orbit number at epoch: 88729

The dashed part of the orbit path shows where the satellite is in the earth's shadow,  

DLR